[[{"header":{"parameterUnit":"m.s-1","parameterCategory":1,"la1":30.2991,"la2":30.254,"lo1":-89.0895,"lo2":-89.0444,"dy":0.0017,"dx":0.0017,"nx":28,"ny":28,"refTime":"2024-05-21T03:00:00:Z","depth":0,"parameterNumber":2,"parameterNumberName":"U-component_of_WINDS"},"data":[0,0,0,0,0,0,0,0,0,0,0,0,0,0,0,0,0,0,0,0,0,0,0,0,0,0,0,0,0,0,0,0,0,0,0,0,0,0,0,0,0,0,0,0,0,0,0,0,0,0,0,0,0,0,0,0,0,0,-2.9341,-2.9341,0,-2.9373,-2.9373,-2.9374,-2.9337,-2.9336,-2.9335,-2.9333,-2.9367,-2.9369,-2.9372,0,0,0,0,0,0,0,0,0,0,0,0,0,-2.925,-2.9252,-2.9341,-2.9341,-2.9341,-2.9373,-2.9373,-2.9374,-2.9338,-2.9336,-2.9334,-2.9333,-2.9367,-2.9369,-2.9372,0,0,0,0,0,0,0,0,0,0,0,0,0,-2.9287,-2.9253,-2.934,-2.9327,-2.9326,-2.9373,-2.9373,-2.9374,-2.9338,-2.9336,-2.9334,-2.9332,-2.9366,-2.9369,-2.9372,-2.9434,0,0,-2.9382,-2.9384,0,0,0,0,0,0,0,0,-2.9285,-2.929,-2.9329,-2.9328,-2.9327,-2.9349,-2.9354,-2.9394,-2.9339,-2.9334,-2.9333,-2.9331,-2.9363,-2.9366,-2.9377,-2.9435,-2.9437,-2.9383,-2.9385,-2.9386,-2.9387,0,0,0,0,0,0,0,-2.9282,-2.9289,-2.9353,-2.9329,-2.9328,-2.932,-2.9323,-2.9361,-2.9359,-2.9334,-2.9331,-2.9336,-2.9362,-2.9374,-2.9377,-2.9437,-2.9382,-2.9385,-2.9387,-2.9389,-2.9549,-2.9551,0,0,0,0,0,0,-2.9281,-2.9287,-2.9352,-2.9354,-2.93,-2.9324,-2.9327,-2.9344,-2.9359,-2.9359,-2.9337,-2.9334,-2.9369,-2.9374,-2.9379,-2.9451,-2.9386,-2.9389,-2.9391,-2.9547,-2.9549,-2.9552,0,0,0,0,0,0,-2.9279,-2.9287,-2.9351,-2.932,-2.9327,-2.9327,-2.9347,-2.9346,-2.9357,-2.9362,-2.9361,-2.9349,-2.9368,-2.9374,-2.942,-2.9452,-2.939,-2.9393,-2.9544,-2.9547,-2.9551,-2.9598,0,0,0,0,0,0,-2.9277,-2.9287,-2.9309,-2.9321,-2.9329,-2.9392,-2.9349,-2.9348,-2.9363,-2.9359,-2.9373,-2.9373,-2.9367,-2.9416,-2.9424,-2.9456,-2.9396,-2.9541,-2.9545,-2.955,-2.9593,-2.9603,-2.961,0,0,0,0,0,-2.9274,-2.9321,-2.9311,-2.9319,-2.9357,-2.9393,-2.9398,-2.939,-2.9366,-2.9389,-2.9392,-2.9373,-2.9448,-2.9421,-2.9429,-2.9463,-2.9539,-2.9544,-2.9549,-2.959,-2.9601,-2.961,0,0,0,0,0,0,-2.9313,-2.9322,-2.9311,-2.9363,-2.9378,-2.9387,-2.9416,-2.9402,-2.9424,-2.9419,-2.9408,-2.9411,-2.946,-2.9467,-2.9436,-2.9524,-2.949,-2.9497,-2.9517,-2.9528,-2.9536,-2.9533,-2.9399,0,0,0,0,0,-2.9329,-2.9357,-2.9363,-2.9409,-2.9417,-2.9416,-2.9431,-2.9423,-2.9438,-2.9444,-2.945,-2.9466,-2.9493,-2.9511,-2.9537,-2.9595,-2.9598,-2.9623,-2.9631,-2.9638,-2.9644,-2.9676,-2.9687,-2.9569,-2.9569,-2.9569,0,0,-2.9359,-2.9368,-2.9386,-2.9417,-2.9428,-2.9458,-2.9421,-2.9454,-2.9476,-2.9449,-2.9493,-2.9499,-2.9516,-2.9569,-2.9592,-2.9575,-2.9677,-2.9645,-2.965,-2.9652,-2.9682,-2.9693,-2.9703,-2.9572,-2.9572,-2.9571,0,0,-2.9431,-2.944,-2.9479,-2.9491,-2.9508,-2.9507,-2.9516,-2.9529,-2.9531,-2.9575,-2.9556,-2.9583,-2.963,-2.9643,-2.9656,-2.9735,-2.9719,-2.9744,-2.9787,-2.9819,-2.9828,-2.9836,-2.9864,-2.9874,-2.975,-2.9751,-2.9751,0,-2.9467,-2.9511,-2.9502,-2.9536,-2.9551,-2.9529,-2.9569,-2.9581,-2.9605,-2.9616,-2.9597,-2.9657,-2.9666,-2.9722,-2.9742,-2.9753,-2.9764,-2.9741,-2.9827,-2.9835,-2.9843,-2.9869,-2.988,-2.9753,-2.9753,-2.9753,-2.9753,0,-2.9555,-2.9586,-2.9616,-2.9639,-2.9658,-2.9695,-2.9693,-2.9713,-2.9704,-2.9706,-2.9752,-2.9764,-2.9791,-2.9804,-2.9796,-2.986,-2.9849,-2.9829,-2.9794,-2.9857,-2.9882,-2.9892,-2.9758,-2.9757,-2.9756,-2.9755,0,0,-2.9649,-2.9669,-2.968,-2.9691,-2.9709,-2.9733,-2.9771,-2.9798,-2.9815,-2.9833,-2.9864,-2.9906,-2.9888,-2.9903,-2.9897,-2.9925,-2.9987,-2.9902,-2.9902,-2.9916,-3.0057,-3.0071,-3.0083,-2.9977,-2.9979,-2.998,-3.0056,0,-2.9721,-2.9784,-2.9778,-2.9839,-2.9868,-2.9849,-2.9881,-2.9896,-2.99,-2.9925,-2.9929,-2.9958,-2.9933,-2.9942,-2.9969,-2.9973,-3.0015,-2.9968,-3.0006,-3.0007,-3.0,-3.0096,-3.011,-3.018,-3.0065,-3.0067,-3.0068,0,-2.9811,-2.9833,-2.9897,-2.9911,-2.9923,-2.9952,-2.9977,-3.0002,-3.0019,-3.002,-3.0038,-3.0027,-3.0066,-3.0032,-3.0085,-3.0054,-3.0069,-3.0075,-3.0077,-3.0079,-3.004,-3.0099,-3.0203,-3.0213,-3.0083,-3.0082,-3.0081,0,-2.9874,-2.9919,-2.9963,-2.9973,-2.9991,-3.0012,-3.0021,-3.0036,-3.0053,-3.0076,-3.0087,-3.0114,-3.0128,-3.015,-3.0148,-3.0123,-3.0202,-3.0168,-3.0204,-3.0204,-3.0219,-3.0218,-3.0325,-3.0232,-3.0232,-3.0232,-3.0231,0,-2.9953,-2.9992,-2.9991,-3.0017,-3.0062,-3.0056,-3.01,-3.0106,-3.0121,-3.0149,-3.0135,-3.0162,-3.0158,-3.0186,-3.0185,-3.0229,-3.0236,-3.0238,-3.0237,-3.0238,-3.0238,-3.0247,-3.0241,-3.0234,-3.0234,-3.0233,-3.0233,0,-3.0028,-3.0029,-3.0076,-3.009,-3.0094,-3.0126,-3.0138,-3.0164,-3.0167,-3.0204,-3.0212,-3.0217,-3.0249,-3.0249,-3.0286,-3.0285,-3.034,-3.0334,-3.0333,-3.0332,-3.0367,-3.0363,-3.0483,-3.0498,-3.0396,-3.0397,-3.0398,0,-3.0078,-3.0108,-3.0126,-3.0143,-3.0153,-3.0183,-3.02,-3.0196,-3.0215,-3.0238,-3.0262,-3.0293,-3.0317,-3.0369,-3.0376,-3.0405,-3.0399,-3.0439,-3.0403,-3.0404,-3.0398,-3.0396,-3.0399,-3.0445,-3.0446,-3.0447,-3.0448,0,-3.0166,-3.0165,-3.0191,-3.0217,-3.0238,-3.0259,-3.0278,-3.0294,-3.0292,-3.0315,-3.0347,-3.0366,-3.0404,-3.0435,-3.0463,-3.0473,-3.046,-3.046,-3.0469,-3.047,-3.0468,-3.0469,-3.0351,-3.0456,-3.0456,-3.0455,-3.0455,-3.0454,-3.023,-3.0256,-3.0272,-3.0301,-3.0316,-3.0334,-3.0359,-3.0366,-3.0393,-3.0423,-3.042,-3.0456,-3.0474,-3.0511,-3.0523,-3.0552,-3.0538,-3.0552,-3.0556,-3.0559,-3.0562,-3.0465,-3.0557,-3.0557,-3.0557,-3.0557,-3.0557,0,-3.0317,-3.0327,-3.0354,-3.0381,-3.0404,-3.0391,-3.0412,-3.0432,-3.0464,-3.0483,-3.0507,-3.0545,-3.0576,-3.0586,-3.0616,-3.0637,-3.0632,-3.0645,-3.0642,-3.0645,-3.0573,-3.0561,-3.0648,-3.0648,-3.0648,-3.0648,-3.0648,-3.0648,-3.0364,-3.0407,-3.0409,-3.046,-3.047,-3.0505,-3.0518,-3.0535,-3.0549,-3.0592,-3.0618,-3.0624,-3.064,-3.0671,-3.0699,-3.0701,-3.0712,-3.0727,-3.0727,-3.0659,-3.065,-3.0641,-3.063,-3.073,-3.073,-3.0796,-3.0797,-3.0797]},{"header":{"parameterUnit":"m.s-1","parameterCategory":1,"la1":30.2991,"la2":30.254,"lo1":-89.0895,"lo2":-89.0444,"dy":0.0017,"dx":0.0017,"nx":28,"ny":28,"refTime":"2024-05-21T03:00:00:Z","depth":0,"parameterNumber":3,"parameterNumberName":"V-component_of_WINDS"},"data":[0,0,0,0,0,0,0,0,0,0,0,0,0,0,0,0,0,0,0,0,0,0,0,0,0,0,0,0,0,0,0,0,0,0,0,0,0,0,0,0,0,0,0,0,0,0,0,0,0,0,0,0,0,0,0,0,0,0,3.7545,3.7545,0,3.7573,3.7574,3.7574,3.7603,3.7603,3.7604,3.7604,3.7631,3.7631,3.7632,0,0,0,0,0,0,0,0,0,0,0,0,0,3.7513,3.7513,3.7545,3.7545,3.7545,3.7573,3.7574,3.7574,3.7603,3.7603,3.7604,3.7604,3.7631,3.7631,3.7632,0,0,0,0,0,0,0,0,0,0,0,0,0,3.7532,3.7513,3.7545,3.7563,3.7565,3.7573,3.7574,3.7574,3.7603,3.7603,3.7604,3.7604,3.7631,3.7631,3.7632,3.7623,0,0,3.7633,3.7634,0,0,0,0,0,0,0,0,3.7531,3.7533,3.756,3.7562,3.7564,3.7585,3.7572,3.7591,3.7602,3.7588,3.7604,3.7605,3.7615,3.7617,3.7621,3.7625,3.7626,3.7633,3.7634,3.7634,3.7634,0,0,0,0,0,0,0,3.753,3.7532,3.7556,3.756,3.7563,3.7569,3.7573,3.7576,3.7598,3.759,3.7592,3.7595,3.7616,3.762,3.7622,3.7626,3.7633,3.7634,3.7634,3.7634,3.7625,3.7625,0,0,0,0,0,0,3.7526,3.7531,3.7555,3.7557,3.7549,3.7569,3.7573,3.7578,3.7598,3.7602,3.7594,3.7596,3.7619,3.7621,3.7623,3.7615,3.7634,3.7634,3.7635,3.7626,3.7625,3.7625,0,0,0,0,0,0,3.7525,3.7528,3.7554,3.7545,3.7548,3.7569,3.7574,3.7578,3.7582,3.7602,3.7605,3.7595,3.762,3.7622,3.7623,3.7616,3.7635,3.7635,3.7626,3.7626,3.7625,3.7599,0,0,0,0,0,0,3.7524,3.7527,3.7525,3.7544,3.7549,3.7554,3.7574,3.7578,3.7583,3.7586,3.7603,3.7606,3.762,3.7622,3.7624,3.7617,3.7636,3.7627,3.7626,3.7625,3.7601,3.7597,3.7595,0,0,0,0,0,3.7523,3.7515,3.7524,3.7527,3.7546,3.7554,3.7556,3.7573,3.7583,3.758,3.7593,3.7606,3.7617,3.7622,3.7624,3.7618,3.7628,3.7626,3.7625,3.7602,3.7598,3.7595,0,0,0,0,0,0,3.7493,3.7518,3.7528,3.7527,3.7538,3.7559,3.7556,3.7569,3.7576,3.7578,3.7598,3.7602,3.7601,3.761,3.7615,3.7611,3.7624,3.7623,3.7606,3.7602,3.7599,3.7597,3.7636,0,0,0,0,0,3.7487,3.7492,3.7513,3.751,3.7515,3.7535,3.7539,3.7551,3.7563,3.7567,3.758,3.759,3.7596,3.76,3.7606,3.7602,3.7606,3.7599,3.7596,3.7593,3.7592,3.7591,3.7588,3.762,3.762,3.762,0,0,3.7473,3.7487,3.7489,3.7505,3.7515,3.7519,3.7538,3.7542,3.7545,3.7567,3.757,3.758,3.7593,3.7591,3.7591,3.7598,3.7584,3.7591,3.7589,3.759,3.7589,3.7586,3.7584,3.762,3.762,3.762,0,0,3.745,3.7462,3.7461,3.7471,3.7486,3.75,3.7499,3.7518,3.7526,3.7529,3.7546,3.755,3.7559,3.7568,3.7574,3.7556,3.7568,3.7557,3.7542,3.7541,3.7538,3.7536,3.753,3.7527,3.7556,3.7556,3.7556,0,3.7431,3.7439,3.7459,3.7462,3.7468,3.749,3.7489,3.7498,3.7514,3.7517,3.7525,3.7539,3.7549,3.755,3.7546,3.755,3.755,3.7555,3.7537,3.7535,3.7533,3.7528,3.7525,3.7555,3.7555,3.7555,3.7555,0,3.7415,3.742,3.7418,3.7435,3.7441,3.7441,3.7461,3.7464,3.7476,3.7488,3.7491,3.7505,3.7515,3.7516,3.7527,3.7519,3.7523,3.7533,3.7547,3.7529,3.7524,3.7522,3.7553,3.7553,3.7554,3.7554,0,0,3.7374,3.7403,3.7401,3.741,3.7429,3.7433,3.7435,3.7446,3.7449,3.7459,3.7461,3.7469,3.748,3.7486,3.7499,3.7498,3.7483,3.7509,3.7509,3.7504,3.7476,3.7468,3.7465,3.7492,3.7491,3.7491,3.7475,0,3.7355,3.7362,3.7379,3.738,3.7385,3.7406,3.7408,3.742,3.7431,3.7437,3.7449,3.7455,3.7468,3.7472,3.7472,3.7485,3.7478,3.7486,3.7493,3.7493,3.749,3.7462,3.7454,3.7438,3.7473,3.7473,3.7472,0,3.7334,3.7345,3.7346,3.7366,3.7369,3.737,3.7382,3.7387,3.7401,3.7409,3.7417,3.7431,3.7434,3.7447,3.7451,3.7456,3.746,3.7467,3.7467,3.7468,3.7482,3.7463,3.7433,3.7431,3.7469,3.747,3.747,0,3.7305,3.7319,3.7322,3.7329,3.7352,3.7352,3.7362,3.7376,3.7381,3.7391,3.7395,3.7405,3.741,3.7417,3.7434,3.7441,3.7436,3.745,3.7443,3.7443,3.7441,3.7441,3.7411,3.7443,3.7443,3.7443,3.7443,0,3.7282,3.7282,3.731,3.7312,3.7312,3.7333,3.7333,3.7344,3.7357,3.736,3.7379,3.7382,3.7403,3.7409,3.7421,3.7423,3.7425,3.7432,3.7435,3.7431,3.743,3.7433,3.7435,3.7443,3.7443,3.7443,3.7443,0,3.725,3.7268,3.7273,3.7295,3.73,3.73,3.7318,3.7321,3.7334,3.7338,3.7341,3.7361,3.7368,3.7385,3.7397,3.7405,3.7404,3.741,3.74,3.7402,3.7394,3.7395,3.7366,3.7364,3.7397,3.7396,3.7396,0,3.7234,3.7235,3.7257,3.7262,3.7271,3.7278,3.7284,3.7304,3.731,3.7326,3.7326,3.7335,3.7344,3.7355,3.737,3.7379,3.7385,3.7375,3.7387,3.7382,3.7386,3.7386,3.7386,3.7372,3.7372,3.7371,3.7371,0,3.7205,3.7214,3.7223,3.7236,3.7243,3.7253,3.7264,3.7267,3.7289,3.7294,3.7303,3.731,3.7322,3.7331,3.7343,3.7352,3.7365,3.7367,3.7366,3.7361,3.7356,3.7359,3.7393,3.7368,3.7368,3.7368,3.7368,3.7369,3.7181,3.7183,3.72,3.7209,3.722,3.723,3.7234,3.7247,3.7255,3.7268,3.7279,3.7286,3.73,3.7317,3.7326,3.7331,3.7338,3.7336,3.7336,3.7335,3.7333,3.7355,3.7333,3.7333,3.7334,3.7334,3.7334,0,3.7153,3.7165,3.7174,3.7189,3.7197,3.721,3.7223,3.7228,3.7235,3.7247,3.7255,3.7265,3.7274,3.729,3.73,3.7302,3.7308,3.7304,3.7304,3.7306,3.7327,3.7327,3.7298,3.7298,3.7298,3.7298,3.7298,3.7298,3.714,3.7144,3.7156,3.7165,3.7177,3.7186,3.7192,3.7201,3.7211,3.7222,3.723,3.7241,3.7254,3.7266,3.7274,3.7279,3.7282,3.7275,3.7282,3.7301,3.7304,3.7307,3.7308,3.7276,3.7276,3.7261,3.726,3.726]}]]